Regional Weather Roundup
Issued by NWS Tiyan, Guam

Home | Current Version | Previous Version | Text Only | Print | Product List | Glossary On
Versions: 1 2 3 4 5 6 7 8 9 10 11 12 13 14 15 16 17 18 19 20 21 22 23 24 25 26 27
000
ASGM40 PGUM 120112
RWRGUM
WEATHER ROUNDUP FOR THE MARIANAS
NATIONAL WEATHER SERVICE TIYAN GU
1100 AM CHST TUE DEC 12 2017

GUZ001>004-120200-
MARIANA ISLANDS-

CITY           SKY/WX    TMP DP  RH WIND       PRES   REMARKS
GUAM AIRPORT   SUNNY     86  75  70 E12       29.86F HX  95
ANDERSEN AFB   MOSUNNY   84  77  79 E13       29.87F HX  94
ROTA AIRPORT   MOSUNNY   82  77  83 SE10      29.86F HX  91
TINIAN AP      MOSUNNY   84  77  79 E9        29.84  HX  94
SAIPAN AP      LGT RAIN  82  79  89 SE13      29.86F HX  93

$$





USA.gov is the U.S. government's official web portal to all federal, state and local government web resources and services.